#timestamp,LO_Frequency,Hit,StdDev 
1698645615.3,286046999.0,N
1698645635.2,286046998.9,N
1698645655.0,286046998.1,N
1698645655.9,286046998.1,N
1698645675.7,286047000.7,N
1698645695.6,286047000.0,N
1698645715.4,286047002.3,N
1698645735.3,286047002.3,N
1698645755.1,286047002.6,N
1698645775.8,286047001.6,N
1698645795.7,286046999.9,N
1698645815.5,286047000.5,N
1698645835.4,286047000.4,N
1698645855.2,286047000.4,N
1698645875.0,286047000.1,N
1698645875.9,286047000.1,N
1698645895.8,286046999.9,N
1698645915.6,286047000.9,N
1698645935.4,286046999.1,N
1698645955.3,286046996.5,N
1698645975.1,286046997.1,N
1698645995.9,286046997.8,N
1698646015.7,286046997.1,N
1698646035.5,286046999.2,N
1698646055.4,286046999.5,N
1698646075.2,286046999.6,N
1698646095.0,286046997.1,N
1698646095.9,286046997.1,N
1698646115.8,286046997.7,N
1698646135.6,286046997.0,N
1698646155.5,286046999.6,N
1698646175.3,286046999.1,N
1698646195.1,286046998.6,N
1698646215.9,286046999.2,N
1698646235.7,286046999.0,N
1698646255.5,286046997.1,N
1698646275.4,286046999.5,N
1698646295.2,286046998.2,N
1698646315.1,286047000.5,N
1698646316.0,286047000.5,N
1698646335.8,286046998.2,N
1698646355.6,286046998.9,N
1698646375.5,286046999.5,N
1698646395.3,286046998.7,N
1698646415.1,286046998.7,N
1698646435.9,286046999.1,N
1698646455.7,286046996.5,Y
1698646475.6,286046999.3,P
1698646495.4,286046999.1,N
1698646515.2,286046998.1,P
1698646535.1,286047001.2,N
1698646536.0,286047001.2,N
1698646555.8,286047001.0,N
1698646575.7,286047000.6,N
1698646595.5,286047002.4,N
1698646615.3,286047002.0,N
1698646635.2,286047003.2,N
1698646655.9,286047003.1,N
1698646675.7,286047003.9,N
1698646695.6,286047004.1,N
1698646715.4,286047003.6,N
1698646735.3,286047004.8,N
1698646755.1,286047004.6,N
1698646756.0,286047004.6,N
1698646775.8,286047005.1,N
1698646795.7,286047006.6,Y
1698646815.5,286047003.0,P
1698646835.3,286047005.3,P
1698646855.2,286047005.4,P
1698646875.0,286047005.8,Y
1698646875.9,286047005.8,P
1698646895.8,286046999.7,N
1698646915.6,286047000.0,N
1698646935.4,286047000.3,N
1698646955.3,286047000.6,N
1698646975.1,286046999.8,N
1698646995.8,286047000.2,N
1698647015.7,286047000.1,N
1698647035.5,286047001.1,N
1698647055.4,286047001.2,N
1698647075.2,286047001.1,N
1698647095.0,286047000.0,N
1698647095.9,286047000.0,N
1698647115.8,286047000.1,N
1698647135.6,286046999.9,N
1698647155.5,286046999.9,N
1698647175.3,286047002.8,N
1698647195.1,286047002.4,N
1698647215.9,286047003.9,N
1698647235.7,286047002.1,N
1698647255.6,286047003.9,N
1698647275.4,286047004.3,N
1698647295.2,286047001.5,N
1698647315.1,286047003.7,N
1698647316.0,286047003.7,N
1698647335.8,286047003.8,N
1698647355.7,286047001.6,N
1698647375.5,286047001.8,N
1698647395.3,286047002.0,N
1698647415.2,286047001.7,N
1698647435.0,286047001.4,N
1698647435.9,286047001.4,N
1698647455.8,286047002.6,N
1698647475.6,286047002.3,N
1698647495.4,286046999.7,N
1698647515.3,286047001.6,N
1698647535.1,286047004.0,N
1698647555.8,286047004.2,N
1698647575.7,286047003.6,N
1698647595.5,286047004.2,N
1698647615.3,286047003.8,N
1698647635.2,286047003.2,N
1698647655.0,286047002.9,N
1698647655.9,286047002.9,N
1698647675.8,286047003.1,N
1698647695.6,286047003.4,N
1698647715.4,286047003.2,N
1698647735.3,286047002.9,N
1698647755.1,286047004.7,Y
1698647775.9,286047001.6,P
1698647795.7,286047001.5,N
1698647815.5,286047001.9,P
1698647835.4,286047004.4,Y
1698647855.2,286047000.0,P
1698647875.6,286047000.6,N
1698647895.5,286047002.7,P
1698647915.3,286047002.7,N
1698647935.1,286047000.2,N
1698647955.9,286047000.3,N
1698647975.7,286047000.7,N
1698647995.5,286047000.0,N
1698648015.4,286047000.0,N
1698648035.2,286047000.1,N
1698648055.0,286046999.8,N
1698648056.0,286046999.8,N
1698648075.8,286047002.4,N
1698648095.6,286046999.8,N
1698648115.5,286046999.7,N
1698648135.3,286047002.0,N
1698648155.1,286047004.2,Y
1698648175.9,286047001.5,P
1698648195.7,286047001.5,P
1698648215.6,286047002.0,P
1698648235.4,286047002.3,Y
1698648255.2,286047001.2,P
1698648275.1,286046998.5,P
1698648276.0,286046998.5,N
1698648295.8,286046998.7,N
1698648315.7,286046999.6,N
1698648335.5,286046999.5,N
1698648355.3,286046996.9,N
1698648375.2,286046997.0,N
1698648395.9,286046997.0,N
1698648415.7,286046997.3,N
1698648435.6,286046996.7,N
1698648455.4,286046996.9,N
1698648475.3,286046997.7,N
1698648495.1,286046997.7,N
1698648496.0,286046997.7,N
1698648515.8,286046996.5,N
1698648535.7,286046998.7,N
1698648555.5,286046999.1,N
1698648575.3,286046999.0,N
1698648595.2,286047000.7,N
1698648615.0,286046999.7,N
1698648615.9,286046999.7,N
1698648635.8,286047002.3,N
1698648655.6,286047000.3,N
1698648675.4,286047000.3,N
1698648695.3,286046998.5,N
1698648715.1,286046999.0,N
1698648735.9,286046998.6,N
1698648755.7,286047001.2,N
1698648775.5,286046998.6,N
1698648795.4,286046999.3,N
1698648815.2,286047001.1,N
1698648835.0,286047001.1,N
1698648836.0,286047001.1,N
1698648855.8,286047001.2,N
1698648875.6,286047000.1,N
1698648895.5,286047000.2,N
1698648915.3,286047001.1,N
1698648935.1,286046999.2,N
1698648955.9,286046998.2,N
1698648975.7,286046998.2,N
1698648995.6,286046998.8,N
1698649015.4,286046998.6,N
1698649035.2,286047001.2,N
1698649055.1,286047001.1,N
1698649056.0,286047001.1,N
1698649075.8,286047002.8,N
1698649095.7,286047002.6,N
1698649115.5,286047002.5,N
1698649135.3,286047002.5,N
1698649155.2,286047002.1,N
1698649175.0,286047002.2,N
1698649175.9,286047002.2,N
1698649195.7,286047000.1,N
